Weather in Mawlamyine

Myanmar     16°29′14″N   97°37′52″E
temp.,
°C
wind,
m/s
gust,
m/s
humid.,
%
clouds,
%
prec.,
mm/h
press.,
hPa
HPBL,
m
28 september, tue
tue2800:30+24ne1194100 0.3 100913
03:30+24ne1196100 0.0 100815
06:30+24ne1295100 0.0 100996
09:30+27ene2384100 0.0 1011459
12:30+31nne1170100 0.3 10081046
15:30+31w116643 0.1 10051022
18:30+25wsw3493100 2.1 100786
21:30+26nw1192100 3.6 101022
29 september, wed
wed2900:30+25ene1193100 3.6 100915
03:30+24ene1194100 0.0 100814
06:30+25ene129435 0.0 100988
09:30+29ne228010 0.0 1010561
12:30+32nne12667 0.0 10071137
15:30+32w22655 0.0 1004936
18:30+26wsw369396 4.3 1006132
21:30+27sw228997 1.8 100945
30 september, thu
thu3000:30+26e119088 3.6 100819
03:30+25ese129480 0.0 100720
06:30+25e119340 0.0 100971
09:30+30e117918 0.0 1010597
12:30+32w116758 0.3 10071225
15:30+30wsw4480100 2.4 1005567
18:30+27sw238976 2.6 100745
21:30+26ssw2290100 0.2 100942
1 october, fri
fri100:30+26s229349 0.2 100821
03:30+25sse229412 0.3 100722
06:30+26se2294100 2.0 100978
09:30+29se118272 0.7 1010550
12:30+31sw337449 4.0 1008978
15:30+30wsw4478100 1.4 1006649
18:30+27sw3588100 2.2 1007129
21:30+26ssw2391100 0.9 100962
2 october, sat
sat200:30+26ssw1192100 1.1 100822
03:30+25se2295100 4.4 100844
06:30+25sse239797 9.0 101097
09:30+27wsw348468 3.1 1011427
12:30+30wsw447087 3.9 10081102
15:30+29sw447892 0.3 1006649
18:30+25sw3490100 5.5 100876
21:30+25ssw2291100 1.5 101026